Sidney, NE

5:45 AM MDT on March 23, 2017 (GMT -0600)
Sidney Municipal

Weather History for KSNY - June, 2013

Change the Weather History Date:

Thursday, June 27, 2013

  Actual Average Record
Temperature  
Mean Temperature 78 °F 72 °F  
Max Temperature 94 °F 87 °F 100 °F (1980)
Min Temperature 61 °F 57 °F 38 °F (1985)
Degree Days  
Heating Degree Days 0 1  
Month to date heating degree days 37 58  
Since 1 June heating degree days 37 58  
Since 1 July heating degree days 6677 6220  
Cooling Degree Days 13 7  
Month to date cooling degree days 145 113  
Year to date cooling degree days 178 135  
Since 1 June cooling degree days 145 113  
Growing Degree Days 28 (Base 50)    
Moisture  
Dew Point 49 °F    
Average Humidity 40    
Maximum Humidity 63    
Minimum Humidity 17    
Precipitation  
Precipitation 0.00 in 0.09 in 1.25 in (1992)
Month to date precipitation 0.30 2.91  
Year to date precipitation 6.08 9.67  
Sea Level Pressure  
Sea Level Pressure 29.99 in    
Wind  
Wind Speed 12 mph (NNE)    
Max Wind Speed 28 mph    
Max Gust Speed 31 mph    
Visibility 10 miles    
Events      
T = Trace of Precipitation, MM = Missing Value Source: NWS Daily Summary

Daily Weather History Graph

Daily Weather History Graph

Search for Another Location

Airport or City:

Trip Planner

Search our weather history database for the weather conditions in past years. The results will help you decide how hot, cold, wet, or windy it might be!

Date:

Astronomy

Jun. 27, 2013 Rise Set
Actual Time 5:21 AM MDT 8:28 PM MDT
Civil Twilight 4:47 AM MDT 9:02 PM MDT
Nautical Twilight 4:04 AM MDT 9:45 PM MDT
Astronomical Twilight 3:13 AM MDT 10:36 PM MDT
Moon 11:23 PM MDT (6/27) 10:27 AM MDT (6/27)
Length of Visible Light 16h 14m
Length of Day
15h 07m
Waning Gibbous, 76% of the Moon is Illuminated
Jun 27
Waning Gibbous
Jun 29
Last Quarter
Jul 8
New
Jul 15
First Quarter
Jul 22
Full

Hourly Weather History & Observations

Time (MDT) Temp. Heat Index Dew Point Humidity Pressure Visibility Wind Dir Wind Speed Gust Speed Precip Events Conditions
12:53 AM 72.0 °F - 46.0 °F 40% 29.84 in 10.0 mi SSW 6.9 mph - N/A   Clear
1:53 AM 72.0 °F - 46.9 °F 41% 29.84 in 10.0 mi South 10.4 mph - N/A   Clear
2:53 AM 64.0 °F - 48.0 °F 56% 29.87 in 10.0 mi Variable 6.9 mph - N/A   Clear
3:53 AM 62.1 °F - 46.9 °F 58% 29.87 in 10.0 mi West 9.2 mph - N/A   Clear
4:53 AM 66.9 °F - 41.0 °F 39% 29.88 in 10.0 mi WNW 15.0 mph - N/A   Clear
5:53 AM 64.9 °F - 46.0 °F 50% 29.91 in 10.0 mi NW 18.4 mph - N/A   Clear
6:53 AM 66.9 °F - 54.0 °F 63% 29.95 in 10.0 mi NNW 19.6 mph 27.6 mph N/A   Clear
7:53 AM 72.0 °F - 55.0 °F 55% 29.99 in 10.0 mi NNW 25.3 mph - N/A   Clear
8:53 AM 75.0 °F - 55.9 °F 51% 30.03 in 10.0 mi North 19.6 mph 25.3 mph N/A   Clear
9:53 AM 80.1 °F 79.9 °F 53.1 °F 39% 30.05 in 10.0 mi NNE 16.1 mph - N/A   Clear
10:53 AM 84.0 °F - 51.1 °F 32% 30.05 in 10.0 mi NNE 16.1 mph 24.2 mph N/A   Clear
11:53 AM 86.0 °F - 50.0 °F 29% 30.05 in 10.0 mi NE 13.8 mph 24.2 mph N/A   Clear
12:53 PM 89.1 °F - 48.0 °F 24% 30.05 in 10.0 mi NE 13.8 mph 19.6 mph N/A   Clear
1:53 PM 90.0 °F - 45.0 °F 21% 30.04 in 10.0 mi North 9.2 mph 17.3 mph N/A   Clear
2:53 PM 93.0 °F - 43.0 °F 18% 30.04 in 10.0 mi NNE 10.4 mph - N/A   Clear
3:53 PM 93.0 °F - 43.0 °F 18% 30.02 in 10.0 mi ENE 10.4 mph 21.9 mph N/A   Clear
4:53 PM 93.0 °F - 45.0 °F 19% 30.00 in 10.0 mi NNE 11.5 mph 18.4 mph N/A   Clear
5:53 PM 91.0 °F - 46.9 °F 22% 29.99 in 10.0 mi ENE 11.5 mph - N/A   Clear
6:53 PM 88.0 °F - 46.9 °F 24% 29.99 in 10.0 mi ENE 13.8 mph - N/A   Clear
7:53 PM 82.9 °F - 48.0 °F 29% 30.01 in 10.0 mi East 8.1 mph - N/A   Clear
8:53 PM 72.0 °F - 48.9 °F 44% 30.04 in 10.0 mi SE 8.1 mph - N/A   Clear
9:53 PM 70.0 °F - 51.1 °F 51% 30.06 in 10.0 mi SSE 9.2 mph - N/A   Clear
10:53 PM 69.1 °F - 53.1 °F 57% 30.09 in 10.0 mi South 8.1 mph - N/A   Clear
11:53 PM 66.9 °F - 54.0 °F 63% 30.10 in 10.0 mi SSW 6.9 mph - N/A   Clear